Regional Weather Roundup
Issued by NWS Little Rock, AR

Home | Current Version | Previous Version | Text Only | Print | Product List | Glossary On
Versions: 1 2 3 4 5 6 7 8 9 10 11 12 13 14 15 16 17 18 19 20 21 22 23 24 25 26 27 28 29 30 31 32 33 34 35 36 37 38 39 40 41 42 43 44 45 46 47 48 49 50
000
ASUS44 KLZK 070005
RWRLZK

WEATHER ROUNDUP FOR ARKANSAS
NATIONAL WEATHER SERVICE LITTLE ROCK AR
600 PM CST FRI MAR 06 2015

NOTE: "FAIR" INDICATES FEW OR NO CLOUDS BELOW 12,000 FEET WITH NO
SIGNIFICANT WEATHER AND/OR OBSTRUCTIONS TO VISIBILITY.

ARZ001-003-010-029-070100-
NORTHWEST ARKANSAS

CITY           SKY/WX    TMP DP  RH WIND       PRES   REMARKS
FAYETTEVILLE   CLEAR     44  25  47 S8        30.38S
6HR MIN TEMP:  42; 6HR MAX TEMP:  49;

FORT SMITH     CLEAR     51  24  34 S8        30.42S
6HR MIN TEMP:  45; 6HR MAX TEMP:  53;

HARRISON       CLEAR     47  24  40 SW5       30.36S
6HR MIN TEMP:  43; 6HR MAX TEMP:  49;

BENTONVILLE    CLEAR     46  25  42 SW8       30.37S
6HR MIN TEMP:  43; 6HR MAX TEMP:  50;

ROGERS         CLEAR     46  26  45 S10       30.37S
6HR MIN TEMP:  43; 6HR MAX TEMP:  50;

SILOAM SPGS    CLEAR     46  23  39 SW10G17   30.38F
6HR MIN TEMP:  45; 6HR MAX TEMP:  52;

HIGHFILL       CLEAR     47  24  40 SW10      30.36S
6HR MIN TEMP:  44; 6HR MAX TEMP:  50;

SPRINGDALE     CLEAR     48  25  40 SW12      30.39S
$$

ARZ004-005-016-070100-
NORTH CENTRAL ARKANSAS

CITY           SKY/WX    TMP DP  RH WIND       PRES   REMARKS
BATESVILLE     CLEAR     41  19  42 S7        30.44S
6HR MIN TEMP:  36; 6HR MAX TEMP:  45; 6HR PCP:  0.38;

FLIPPIN        CLEAR     48  21  34 SW6       30.37S
6HR MIN TEMP:  43; 6HR MAX TEMP:  52;

MTN HOME       CLEAR     47  22  37 SW3       30.36S
6HR MIN TEMP:  39; 6HR MAX TEMP:  50;

$$

ARZ040-041-070100-
WEST CENTRAL ARKANSAS

CITY           SKY/WX    TMP DP  RH WIND       PRES   REMARKS
MENA           CLEAR     50  23  34 CALM      30.43S
MOUNT IDA      CLEAR     48  20  32 CALM      30.41F
6HR MIN TEMP:  43; 6HR MAX TEMP:  52;

$$

ARZ009-017-025-026-028-070100-
NORTHEAST ARKANSAS

CITY           SKY/WX    TMP DP  RH WIND       PRES   REMARKS
CORNING        FAIR      30  18  59 SW12      30.46F WCI  21
JONESBORO      CLEAR     27  18  69 S7        30.47F WCI  19
6HR MIN TEMP:  25; 6HR MAX TEMP:  30;

NEWPORT        CLEAR     30  23  75 S10       30.49S WCI  21
6HR MIN TEMP:  29; 6HR MAX TEMP:  34;

WALNUT RIDGE   CLEAR     27  18  69 S8        30.47R WCI  18
6HR MIN TEMP:  27; 6HR MAX TEMP:  30;

BLYTHEVILLE    CLEAR     26  18  71 S8        30.48F WCI  18
6HR MIN TEMP:  24; 6HR MAX TEMP:  29;

$$

ARZ022-023-033-042-044-070100-
CENTRAL ARKANSAS

CITY           SKY/WX    TMP DP  RH WIND       PRES   REMARKS
LITTLE ROCK    CLEAR     37  20  50 SE7       30.49F
6HR MIN TEMP:  35; 6HR MAX TEMP:  38;

N LITTLE ROCK  CLEAR     36  25  64 S7        30.49F
6HR MIN TEMP:  35; 6HR MAX TEMP:  42;

JACKSONVILLE   CLEAR     36  19  50 SE2       30.47F
6HR MIN TEMP:  35; 6HR MAX TEMP:  41;

SEARCY         CLEAR     36  22  56 S7        30.49F
6HR MIN TEMP:  34; 6HR MAX TEMP:  41;

HOT SPRINGS    CLEAR     46  21  37 S7        30.46S
6HR MIN TEMP:  41; 6HR MAX TEMP:  49;

RUSSELLVILLE   CLEAR     47  26  44 S3        30.42F
6HR MIN TEMP:  40; 6HR MAX TEMP:  51;

CLINTON        FAIR      45  25  45 CALM      30.45R
$$

ARZ036-070100-
EAST ARKANSAS

CITY           SKY/WX    TMP DP  RH WIND       PRES   REMARKS
WEST MEMPHIS   CLEAR     32  16  51 S6        30.49F WCI  26
6HR MIN TEMP:  28; 6HR MAX TEMP:  34;

$$

ARZ050-053-066-070-073-070100-
SOUTHWEST ARKANSAS

CITY           SKY/WX    TMP DP  RH WIND       PRES   REMARKS
ARKADELPHIA    FAIR      47  29  50 S6        30.49F
6HR MIN TEMP:  38; 6HR MAX TEMP:  48;

CAMDEN         CLEAR     45  14  29 CALM      30.50S
TEXARKANA      CLEAR     46  25  43 E3        30.47F
6HR MIN TEMP:  43; 6HR MAX TEMP:  49;

EL DORADO      CLEAR     45  20  36 CALM      30.49S
6HR MIN TEMP:  40; 6HR MAX TEMP:  48;

DE QUEEN       CLEAR     47  23  38 W5        30.45S
6HR MIN TEMP:  43; 6HR MAX TEMP:  51;

$$

ARZ056-057-069-070100-
SOUTHEAST ARKANSAS

CITY           SKY/WX    TMP DP  RH WIND       PRES   REMARKS
PINE BLUFF     CLEAR     35  25  66 SE5       30.50F WCI  31
6HR MIN TEMP:  32; 6HR MAX TEMP:  38;

STUTTGART      CLEAR     36  19  51 SE7       30.51F
6HR MIN TEMP:  30; 6HR MAX TEMP:  36;

MONTICELLO     CLEAR     40  20  44 E5        30.50F
6HR MIN TEMP:  37; 6HR MAX TEMP:  45;


$$





USA.gov is the U.S. government's official web portal to all federal, state and local government web resources and services.